• In Uzbekistan
  • List of Countries
  • For 7 days
  • Water Temperature
  • Satellite Maps
  • Weather Map
  • Weather Widgets
  • user-avatar
    Login

    Hourly Weather Leribe

    Today, 22 June, Friday

    Time Temperature Precipitation Wind Pressure Humidity
    00:00 +9°C° 0 mm 1 mps 632 mmHg 41%
    01:00 +9°C° 0 mm 1 mps 632 mmHg 42%
    02:00 +8°C° 0 mm 1 mps 632 mmHg 45%
    03:00 +8°C° 0 mm 1 mps 632 mmHg 46%
    04:00 +8°C° 0 mm 1 mps 632 mmHg 47%
    05:00 +7°C° 0 mm 1 mps 632 mmHg 48%
    06:00 +8°C° 0 mm 1 mps 632 mmHg 46%
    07:00 +9°C° 0 mm 1 mps 633 mmHg 44%
    08:00 +11°C° 0 mm 1 mps 634 mmHg 40%
    09:00 +13°C° 0 mm 1 mps 635 mmHg 34%
    10:00 +15°C° 0 mm 1 mps 635 mmHg 28%
    11:00 +19°C° 0 mm 1 mps 636 mmHg 23%
    12:00 +19°C° 0 mm 1 mps 635 mmHg 21%
    13:00 +19°C° 0 mm 2 mps 635 mmHg 20%
    14:00 +19°C° 0 mm 2 mps 635 mmHg 18%
    15:00 +18°C° 0 mm 2 mps 634 mmHg 21%
    16:00 +16°C° 0 mm 2 mps 634 mmHg 23%
    17:00 +15°C° 0 mm 1 mps 633 mmHg 26%
    18:00 +13°C° 0 mm 1 mps 633 mmHg 29%
    19:00 +12°C° 0 mm 1 mps 632 mmHg 31%
    20:00 +10°C° 0 mm 1 mps 632 mmHg 34%
    21:00 +10°C° 0 mm 1 mps 632 mmHg 36%
    22:00 +9°C° 0 mm 1 mps 632 mmHg 37%
    23:00 +9°C° 0 mm 1 mps 632 mmHg 39%

    Tomorrow, 23 June, Saturday

    Time Temperature Precipitation Wind Pressure Humidity
    00:00 +8°C° 0 mm 1 mps 632 mmHg 39%
    01:00 +8°C° 0 mm 1 mps 632 mmHg 38%
    02:00 +8°C° 0 mm 1 mps 632 mmHg 38%
    03:00 +7°C° 0 mm 1 mps 631 mmHg 38%
    04:00 +7°C° 0 mm 1 mps 631 mmHg 37%
    05:00 +7°C° 0 mm 1 mps 631 mmHg 37%
    06:00 +7°C° 0 mm 1 mps 631 mmHg 36%
    07:00 +8°C° 0 mm 1 mps 631 mmHg 35%
    08:00 +9°C° 0 mm 1 mps 632 mmHg 34%
    09:00 +11°C° 0 mm 1 mps 632 mmHg 30%
    10:00 +14°C° 0 mm 1 mps 633 mmHg 26%
    11:00 +17°C° 0 mm 2 mps 634 mmHg 22%
    12:00 +17°C° 0 mm 2 mps 633 mmHg 22%
    13:00 +18°C° 0 mm 3 mps 633 mmHg 21%
    14:00 +18°C° 0 mm 4 mps 632 mmHg 21%
    15:00 +17°C° 0 mm 3 mps 632 mmHg 24%
    16:00 +16°C° 0 mm 3 mps 631 mmHg 27%
    17:00 +14°C° 0 mm 2 mps 631 mmHg 30%
    18:00 +13°C° 0 mm 2 mps 630 mmHg 33%
    19:00 +11°C° 0 mm 1 mps 630 mmHg 36%
    20:00 +10°C° 0 mm 1 mps 630 mmHg 39%
    21:00 +10°C° 0 mm 1 mps 630 mmHg 40%
    22:00 +9°C° 0 mm 1 mps 630 mmHg 41%
    23:00 +9°C° 0 mm 1 mps 630 mmHg 41%

    Day after tomorrow, 24 June, Sunday

    Time Temperature Precipitation Wind Pressure Humidity
    00:00 +9°C° 0 mm 1 mps 630 mmHg 43%
    01:00 +8°C° 0 mm 1 mps 630 mmHg 45%
    02:00 +8°C° 0 mm 1 mps 630 mmHg 47%
    03:00 +7°C° 0 mm 1 mps 629 mmHg 48%
    04:00 +7°C° 0 mm 1 mps 629 mmHg 49%
    05:00 +7°C° 0 mm 1 mps 629 mmHg 50%
    06:00 +8°C° 0 mm 1 mps 630 mmHg 48%
    07:00 +8°C° 0 mm 1 mps 630 mmHg 46%
    08:00 +9°C° 0 mm 1 mps 631 mmHg 44%
    09:00 +12°C° 0 mm 1 mps 632 mmHg 38%
    10:00 +14°C° 0 mm 1 mps 633 mmHg 31%
    11:00 +18°C° 0 mm 1 mps 634 mmHg 24%
    12:00 +18°C° 0 mm 1 mps 633 mmHg 22%
    13:00 +18°C° 0 mm 2 mps 633 mmHg 21%
    14:00 +18°C° 0 mm 2 mps 633 mmHg 19%
    15:00 +17°C° 0 mm 2 mps 632 mmHg 22%
    16:00 +16°C° 0 mm 2 mps 631 mmHg 26%
    17:00 +14°C° 0 mm 1 mps 631 mmHg 29%
    18:00 +13°C° 0 mm 1 mps 631 mmHg 32%
    19:00 +11°C° 0 mm 1 mps 631 mmHg 35%
    20:00 +10°C° 0 mm 1 mps 631 mmHg 38%
    21:00 +9°C° 0 mm 1 mps 631 mmHg 39%
    22:00 +9°C° 0 mm 1 mps 631 mmHg 40%
    23:00 +9°C° 0 mm 1 mps 631 mmHg 41%

    25 June, Monday

    Time Temperature Precipitation Wind Pressure Humidity
    00:00 +8°C° 0 mm 1 mps 631 mmHg 43%
    01:00 +8°C° 0 mm 1 mps 630 mmHg 44%
    02:00 +7°C° 0 mm 1 mps 630 mmHg 46%
    03:00 +7°C° 0 mm 1 mps 630 mmHg 46%
    04:00 +7°C° 0 mm 1 mps 630 mmHg 47%
    05:00 +7°C° 0 mm 1 mps 630 mmHg 48%
    06:00 +7°C° 0 mm 1 mps 631 mmHg 46%
    07:00 +8°C° 0 mm 1 mps 631 mmHg 44%
    08:00 +9°C° 0 mm 1 mps 632 mmHg 42%
    09:00 +12°C° 0 mm 1 mps 633 mmHg 36%
    10:00 +14°C° 0 mm 1 mps 633 mmHg 30%
    11:00 +18°C° 0 mm 1 mps 634 mmHg 24%
    12:00 +18°C° 0 mm 1 mps 634 mmHg 23%
    13:00 +18°C° 0 mm 2 mps 633 mmHg 22%
    14:00 +18°C° 0 mm 2 mps 633 mmHg 20%
    15:00 +17°C° 0 mm 2 mps 632 mmHg 24%
    16:00 +16°C° 0 mm 1 mps 632 mmHg 27%
    17:00 +14°C° 0 mm 1 mps 631 mmHg 30%
    18:00 +13°C° 0 mm 1 mps 631 mmHg 32%
    19:00 +11°C° 0 mm 1 mps 631 mmHg 34%
    20:00 +9°C° 0 mm 0 mps 631 mmHg 36%
    21:00 +10°C° 0 mm 1 mps 631 mmHg 36%
    22:00 +9°C° 0 mm 1 mps 631 mmHg 37%
    23:00 +9°C° 0 mm 1 mps 631 mmHg 37%

    26 June, Tuesday

    Time Temperature Precipitation Wind Pressure Humidity
    00:00 +9°C° 0 mm 1 mps 631 mmHg 37%
    01:00 +8°C° 0 mm 1 mps 631 mmHg 37%
    02:00 +8°C° 0 mm 1 mps 631 mmHg 38%
    03:00 +8°C° 0 mm 1 mps 631 mmHg 38%
    04:00 +7°C° 0 mm 1 mps 630 mmHg 39%
    05:00 +7°C° 0 mm 1 mps 630 mmHg 39%
    06:00 +8°C° 0 mm 1 mps 631 mmHg 38%
    07:00 +8°C° 0 mm 1 mps 631 mmHg 37%
    08:00 +9°C° 0 mm 1 mps 632 mmHg 36%
    09:00 +10°C° 0 mm 2 mps 633 mmHg 32%
    10:00 +14°C° 0 mm 2 mps 633 mmHg 27%
    11:00 +16°C° 0 mm 3 mps 634 mmHg 22%
    12:00 +17°C° 0 mm 3 mps 633 mmHg 22%
    13:00 +17°C° 0 mm 3 mps 633 mmHg 22%
    14:00 +18°C° 0 mm 4 mps 632 mmHg 23%
    15:00 +17°C° 0 mm 3 mps 632 mmHg 26%
    16:00 +16°C° 0 mm 2 mps 631 mmHg 29%
    17:00 +15°C° 0 mm 2 mps 631 mmHg 33%
    18:00 +13°C° 0 mm 1 mps 631 mmHg 36%
    19:00 +12°C° 0 mm 1 mps 631 mmHg 39%
    20:00 +11°C° 0 mm 1 mps 631 mmHg 42%
    21:00 +11°C° 0 mm 1 mps 631 mmHg 42%
    22:00 +11°C° 0 mm 1 mps 631 mmHg 43%
    23:00 +11°C° 0 mm 1 mps 631 mmHg 44%

    27 June, Wednesday

    Time Temperature Precipitation Wind Pressure Humidity
    00:00 +10°C° 0 mm 1 mps 631 mmHg 46%
    01:00 +10°C° 0 mm 1 mps 630 mmHg 49%
    02:00 +9°C° 0 mm 1 mps 630 mmHg 52%
    03:00 +9°C° 0 mm 1 mps 630 mmHg 54%
    04:00 +8°C° 0 mm 1 mps 630 mmHg 57%
    05:00 +8°C° 0 mm 1 mps 630 mmHg 59%
    06:00 +9°C° 0 mm 1 mps 630 mmHg 57%
    07:00 +9°C° 0 mm 1 mps 631 mmHg 55%
    08:00 +10°C° 0 mm 1 mps 631 mmHg 54%
    09:00 +12°C° 0 mm 2 mps 632 mmHg 48%
    10:00 +13°C° 0 mm 3 mps 632 mmHg 42%
    11:00 +16°C° 0 mm 3 mps 633 mmHg 36%
    12:00 +17°C° 0 mm 4 mps 632 mmHg 35%
    13:00 +17°C° 0 mm 4 mps 632 mmHg 33%
    14:00 +17°C° 0 mm 4 mps 631 mmHg 32%
    15:00 +16°C° 0 mm 3 mps 631 mmHg 35%
    16:00 +14°C° 0 mm 3 mps 631 mmHg 37%
    17:00 +14°C° 0 mm 2 mps 630 mmHg 40%
    18:00 +13°C° 0 mm 1 mps 630 mmHg 44%
    19:00 +11°C° 0 mm 1 mps 630 mmHg 48%
    20:00 +10°C° 0 mm 1 mps 630 mmHg 52%
    21:00 +10°C° 0 mm 1 mps 630 mmHg 53%
    22:00 +9°C° 0 mm 1 mps 630 mmHg 55%
    23:00 +9°C° 0 mm 1 mps 630 mmHg 56%
    Show more